Time,TemperatureF,DewpointF,PressureIn,WindDirection,WindDirectionDegrees,WindSpeedMPH,WindSpeedGustMPH,Humidity,HourlyPrecipIn,Conditions,Clouds,dailyrainin,SoftwareType,DateUTC
2013-06-17 00:05:00,54.2,53.4,27.87,South,183,0.0,0.0,97,0.00,,---,0.00,VWS V14.01,2013-06-17 05:05:00,
2013-06-17 00:41:00,54.0,53.2,27.88,South,183,0.0,0.0,97,0.00,,---,0.00,VWS V14.01,2013-06-17 05:41:00,
2013-06-17 00:46:00,54.1,53.3,27.88,South,183,0.0,0.0,97,0.00,,---,0.00,VWS V14.01,2013-06-17 05:46:00,
2013-06-17 00:52:00,54.2,53.4,27.88,South,183,0.0,2.0,97,0.00,,---,0.00,VWS V14.01,2013-06-17 05:52:00,
2013-06-17 00:57:00,54.1,53.3,27.88,South,183,0.0,0.0,97,0.00,,---,0.00,VWS V14.01,2013-06-17 05:57:00,
2013-06-17 01:02:00,54.0,53.2,27.88,South,183,0.0,0.0,97,0.01,,---,0.01,VWS V14.01,2013-06-17 06:02:00,
2013-06-17 01:07:00,53.9,53.1,27.88,East,90,3.0,3.0,97,0.01,,---,0.01,VWS V14.01,2013-06-17 06:07:00,
2013-06-17 01:12:00,53.6,52.8,27.88,East,79,0.0,0.0,97,0.01,,---,0.01,VWS V14.01,2013-06-17 06:12:00,
2013-06-17 01:18:00,53.2,52.4,27.89,East,80,3.0,3.0,97,0.01,,---,0.01,VWS V14.01,2013-06-17 06:18:00,
2013-06-17 01:23:00,52.9,52.1,27.89,East,80,2.0,5.0,97,0.01,,---,0.01,VWS V14.01,2013-06-17 06:23:00,
2013-06-17 01:28:00,52.4,51.6,27.89,SSE,157,6.0,9.0,97,0.01,,---,0.01,VWS V14.01,2013-06-17 06:28:00,
2013-06-17 02:13:00,49.7,48.6,27.89,SE,144,0.0,1.0,96,0.00,,---,0.01,VWS V14.01,2013-06-17 07:13:00,
2013-06-17 02:22:00,49.3,48.2,27.89,SE,138,2.0,5.0,96,0.00,,---,0.01,VWS V14.01,2013-06-17 07:22:00,
2013-06-17 02:38:00,48.6,47.5,27.90,East,91,3.0,8.0,96,0.00,,---,0.01,VWS V14.01,2013-06-17 07:38:00,
2013-06-17 02:43:00,48.5,47.4,27.90,ENE,62,5.0,5.0,96,0.00,,---,0.01,VWS V14.01,2013-06-17 07:43:00,
2013-06-17 02:48:00,48.2,47.1,27.90,East,81,6.0,8.0,96,0.00,,---,0.01,VWS V14.01,2013-06-17 07:48:00,
2013-06-17 02:57:00,47.9,46.8,27.90,East,84,5.0,9.0,96,0.00,,---,0.01,VWS V14.01,2013-06-17 07:57:00,
2013-06-17 03:06:00,47.7,46.6,27.91,ESE,111,4.0,4.0,96,0.00,,---,0.01,VWS V14.01,2013-06-17 08:06:00,
2013-06-17 03:11:00,47.5,46.4,27.91,ESE,109,2.0,11.0,96,0.00,,---,0.01,VWS V14.01,2013-06-17 08:11:00,
2013-06-17 03:16:00,47.4,46.3,27.91,SE,128,1.0,5.0,96,0.00,,---,0.01,VWS V14.01,2013-06-17 08:16:00,
2013-06-17 03:21:00,47.4,46.3,27.91,East,86,5.0,5.0,96,0.00,,---,0.01,VWS V14.01,2013-06-17 08:21:00,
2013-06-17 03:26:00,47.3,46.2,27.91,ESE,109,1.0,3.0,96,0.00,,---,0.01,VWS V14.01,2013-06-17 08:26:00,
2013-06-17 03:31:00,47.3,46.2,27.91,ESE,104,4.0,4.0,96,0.00,,---,0.01,VWS V14.01,2013-06-17 08:31:00,
2013-06-17 03:37:00,47.2,46.1,27.91,ENE,78,1.0,2.0,96,0.00,,---,0.01,VWS V14.01,2013-06-17 08:37:00,
2013-06-17 03:42:00,47.1,46.0,27.91,East,88,5.0,5.0,96,0.00,,---,0.01,VWS V14.01,2013-06-17 08:42:00,
2013-06-17 03:47:00,46.9,45.8,27.91,East,82,7.0,7.0,96,0.00,,---,0.01,VWS V14.01,2013-06-17 08:47:00,
2013-06-17 03:52:00,46.8,45.7,27.91,East,90,0.0,5.0,96,0.00,,---,0.01,VWS V14.01,2013-06-17 08:52:00,
2013-06-17 03:57:00,46.8,45.7,27.91,ENE,76,5.0,5.0,96,0.00,,---,0.01,VWS V14.01,2013-06-17 08:57:00,
2013-06-17 04:02:00,46.7,45.3,27.92,ESE,109,1.0,1.0,95,0.00,,---,0.01,VWS V14.01,2013-06-17 09:02:00,
2013-06-17 04:08:00,46.8,45.5,27.92,East,101,2.0,4.0,95,0.00,,---,0.01,VWS V14.01,2013-06-17 09:08:00,
2013-06-17 04:13:00,46.8,45.5,27.92,East,90,1.0,1.0,95,0.00,,---,0.01,VWS V14.01,2013-06-17 09:13:00,
2013-06-17 04:18:00,46.9,45.5,27.92,East,84,6.0,6.0,95,0.00,,---,0.01,VWS V14.01,2013-06-17 09:18:00,
2013-06-17 04:23:00,46.9,45.8,27.92,East,88,0.0,2.0,96,0.00,,---,0.01,VWS V14.01,2013-06-17 09:23:00,
2013-06-17 04:28:00,46.9,45.8,27.92,ENE,73,0.0,3.0,96,0.00,,---,0.01,VWS V14.01,2013-06-17 09:28:00,
2013-06-17 04:33:00,46.8,45.5,27.92,ESE,102,2.0,2.0,95,0.00,,---,0.01,VWS V14.01,2013-06-17 09:33:00,
2013-06-17 04:38:00,46.6,45.2,27.92,ESE,107,3.0,4.0,95,0.00,,---,0.01,VWS V14.01,2013-06-17 09:38:00,
2013-06-17 04:43:00,46.5,45.2,27.92,ESE,104,0.0,0.0,95,0.00,,---,0.01,VWS V14.01,2013-06-17 09:43:00,
2013-06-17 04:49:00,46.4,45.0,27.92,SE,139,3.0,4.0,95,0.00,,---,0.01,VWS V14.01,2013-06-17 09:49:00,
2013-06-17 04:54:00,46.3,45.0,27.92,SE,130,0.0,1.0,95,0.00,,---,0.01,VWS V14.01,2013-06-17 09:54:00,
2013-06-17 04:59:00,46.3,45.0,27.92,SE,126,1.0,3.0,95,0.00,,---,0.01,VWS V14.01,2013-06-17 09:59:00,
2013-06-17 05:04:00,46.3,45.0,27.93,SSE,151,1.0,6.0,95,0.00,,---,0.01,VWS V14.01,2013-06-17 10:04:00,
2013-06-17 05:09:00,46.2,44.6,27.93,SSE,159,4.0,6.0,94,0.00,,---,0.01,VWS V14.01,2013-06-17 10:09:00,
2013-06-17 05:14:00,46.1,44.2,27.93,East,90,0.0,2.0,93,0.00,,---,0.01,VWS V14.01,2013-06-17 10:14:00,
2013-06-17 05:19:00,46.1,44.5,27.93,ESE,113,0.0,4.0,94,0.00,,---,0.01,VWS V14.01,2013-06-17 10:19:00,
2013-06-17 05:24:00,46.1,44.5,27.93,ESE,117,0.0,4.0,94,0.00,,---,0.01,VWS V14.01,2013-06-17 10:24:00,
2013-06-17 05:29:00,46.1,44.5,27.93,ESE,115,0.0,0.0,94,0.00,,---,0.01,VWS V14.01,2013-06-17 10:29:00,
2013-06-17 05:34:00,45.9,44.3,27.93,ESE,114,1.0,3.0,94,0.00,,---,0.01,VWS V14.01,2013-06-17 10:34:00,
2013-06-17 05:40:00,45.9,44.3,27.93,SE,136,1.0,1.0,94,0.00,,---,0.01,VWS V14.01,2013-06-17 10:40:00,
2013-06-17 05:45:00,45.9,44.3,27.93,ESE,121,2.0,3.0,94,0.00,,---,0.01,VWS V14.01,2013-06-17 10:45:00,
2013-06-17 05:50:00,45.9,44.3,27.94,ESE,104,1.0,3.0,94,0.00,,---,0.01,VWS V14.01,2013-06-17 10:50:00,
2013-06-17 05:55:00,45.8,43.9,27.94,East,93,2.0,2.0,93,0.00,,---,0.01,VWS V14.01,2013-06-17 10:55:00,
2013-06-17 06:01:00,45.7,43.5,27.94,ESE,103,4.0,6.0,92,0.00,,---,0.01,VWS V14.01,2013-06-17 11:01:00,
2013-06-17 06:06:00,45.6,43.1,27.94,SSE,149,5.0,7.0,91,0.00,,---,0.01,VWS V14.01,2013-06-17 11:06:00,
2013-06-17 06:11:00,45.5,43.0,27.94,East,87,1.0,5.0,91,0.00,,---,0.01,VWS V14.01,2013-06-17 11:11:00,
2013-06-17 06:16:00,45.5,43.3,27.94,SE,141,3.0,5.0,92,0.00,,---,0.01,VWS V14.01,2013-06-17 11:16:00,
2013-06-17 06:21:00,45.4,42.9,27.94,ESE,123,0.0,0.0,91,0.00,,---,0.01,VWS V14.01,2013-06-17 11:21:00,
2013-06-17 06:27:00,45.4,42.9,27.94,SE,136,1.0,2.0,91,0.00,,---,0.01,VWS V14.01,2013-06-17 11:27:00,
2013-06-17 06:32:00,45.4,42.9,27.95,East,101,0.0,0.0,91,0.00,,---,0.01,VWS V14.01,2013-06-17 11:32:00,
2013-06-17 06:37:00,45.3,42.8,27.95,SE,142,1.0,5.0,91,0.00,,---,0.01,VWS V14.01,2013-06-17 11:37:00,
2013-06-17 06:42:00,45.2,43.0,27.95,ENE,69,4.0,4.0,92,0.00,,---,0.01,VWS V14.01,2013-06-17 11:42:00,
2013-06-17 06:47:00,45.1,42.9,27.94,East,96,1.0,3.0,92,0.00,,---,0.01,VWS V14.01,2013-06-17 11:47:00,
2013-06-17 06:53:00,45.0,42.8,27.94,East,86,0.0,3.0,92,0.00,,---,0.01,VWS V14.01,2013-06-17 11:53:00,
2013-06-17 06:58:00,45.0,43.1,27.94,SSE,150,2.0,6.0,93,0.00,,---,0.01,VWS V14.01,2013-06-17 11:58:00,
2013-06-17 07:03:00,45.0,42.8,27.95,East,95,1.0,3.0,92,0.00,,---,0.01,VWS V14.01,2013-06-17 12:03:00,
2013-06-17 07:08:00,44.9,42.7,27.95,ESE,115,1.0,5.0,92,0.00,,---,0.01,VWS V14.01,2013-06-17 12:08:00,
2013-06-17 07:14:00,44.9,42.7,27.95,ESE,121,0.0,3.0,92,0.00,,---,0.01,VWS V14.01,2013-06-17 12:14:00,
2013-06-17 07:19:00,44.9,43.0,27.95,East,82,5.0,5.0,93,0.00,,---,0.01,VWS V14.01,2013-06-17 12:19:00,
2013-06-17 07:24:00,44.9,42.7,27.95,ESE,107,1.0,4.0,92,0.00,,---,0.01,VWS V14.01,2013-06-17 12:24:00,
2013-06-17 07:29:00,44.7,42.5,27.95,ESE,123,1.0,4.0,92,0.01,,---,0.02,VWS V14.01,2013-06-17 12:29:00,
2013-06-17 07:34:00,44.5,42.3,27.95,ESE,121,3.0,4.0,92,0.01,,---,0.02,VWS V14.01,2013-06-17 12:34:00,
2013-06-17 07:39:00,44.4,42.5,27.95,ESE,103,1.0,1.0,93,0.01,,---,0.02,VWS V14.01,2013-06-17 12:39:00,
2013-06-17 07:45:00,44.3,42.7,27.95,ENE,59,1.0,2.0,94,0.01,,---,0.02,VWS V14.01,2013-06-17 12:45:00,
2013-06-17 07:50:00,44.4,42.8,27.95,East,89,0.0,3.0,94,0.01,,---,0.02,VWS V14.01,2013-06-17 12:50:00,
2013-06-17 07:55:00,44.5,43.2,27.95,ESE,112,5.0,5.0,95,0.01,,---,0.02,VWS V14.01,2013-06-17 12:55:00,
2013-06-17 08:00:00,44.4,42.8,27.95,East,88,7.0,7.0,94,0.01,,---,0.02,VWS V14.01,2013-06-17 13:00:00,
2013-06-17 08:05:00,44.4,42.8,27.95,SE,130,4.0,4.0,94,0.02,,---,0.03,VWS V14.01,2013-06-17 13:05:00,
2013-06-17 08:10:00,44.5,42.9,27.95,SSE,160,0.0,1.0,94,0.02,,---,0.03,VWS V14.01,2013-06-17 13:10:00,
2013-06-17 08:16:00,44.6,43.0,27.96,ENE,62,1.0,1.0,94,0.02,,---,0.03,VWS V14.01,2013-06-17 13:16:00,
2013-06-17 08:21:00,44.8,43.2,27.96,East,88,3.0,3.0,94,0.02,,---,0.03,VWS V14.01,2013-06-17 13:21:00,
2013-06-17 08:26:00,45.0,43.7,27.96,ENE,63,0.0,5.0,95,0.03,,---,0.04,VWS V14.01,2013-06-17 13:26:00,
2013-06-17 08:31:00,45.0,43.4,27.97,East,82,2.0,5.0,94,0.02,,---,0.04,VWS V14.01,2013-06-17 13:31:00,
2013-06-17 08:36:00,45.4,44.0,27.97,East,84,1.0,1.0,95,0.02,,---,0.04,VWS V14.01,2013-06-17 13:36:00,
2013-06-17 08:42:00,45.6,44.2,27.97,East,96,1.0,2.0,95,0.02,,---,0.04,VWS V14.01,2013-06-17 13:42:00,
2013-06-17 08:47:00,45.7,44.3,27.97,ESE,108,2.0,3.0,95,0.02,,---,0.04,VWS V14.01,2013-06-17 13:47:00,
2013-06-17 08:52:00,45.9,44.5,27.97,East,98,3.0,3.0,95,0.02,,---,0.04,VWS V14.01,2013-06-17 13:52:00,
2013-06-17 08:57:00,46.1,44.5,27.97,ESE,115,2.0,4.0,94,0.03,,---,0.05,VWS V14.01,2013-06-17 13:57:00,
2013-06-17 09:02:00,46.1,44.2,27.97,ESE,118,7.0,7.0,93,0.02,,---,0.05,VWS V14.01,2013-06-17 14:02:00,
2013-06-17 09:07:00,46.1,44.2,27.97,ESE,102,1.0,3.0,93,0.02,,---,0.05,VWS V14.01,2013-06-17 14:07:00,
2013-06-17 09:13:00,46.3,44.4,27.97,East,97,1.0,2.0,93,0.02,,---,0.05,VWS V14.01,2013-06-17 14:13:00,
2013-06-17 09:18:00,46.5,44.9,27.97,ESE,105,4.0,4.0,94,0.02,,---,0.05,VWS V14.01,2013-06-17 14:18:00,
2013-06-17 09:23:00,46.7,44.8,27.97,ESE,113,1.0,4.0,93,0.01,,---,0.05,VWS V14.01,2013-06-17 14:23:00,
2013-06-17 09:28:00,47.2,45.6,27.97,East,93,0.0,3.0,94,0.01,,---,0.05,VWS V14.01,2013-06-17 14:28:00,
2013-06-17 09:33:00,47.5,45.3,27.97,ENE,68,0.0,4.0,92,0.01,,---,0.05,VWS V14.01,2013-06-17 14:33:00,
2013-06-17 09:39:00,47.1,43.7,27.97,ESE,107,1.0,7.0,88,0.01,,---,0.05,VWS V14.01,2013-06-17 14:39:00,
2013-06-17 09:44:00,47.0,44.2,27.97,ENE,74,2.0,7.0,90,0.01,,---,0.05,VWS V14.01,2013-06-17 14:44:00,
2013-06-17 09:49:00,47.2,44.4,27.97,NE,49,4.0,4.0,90,0.01,,---,0.05,VWS V14.01,2013-06-17 14:49:00,
2013-06-17 09:54:00,47.4,44.6,27.97,SE,129,3.0,3.0,90,0.01,,---,0.05,VWS V14.01,2013-06-17 14:54:00,
2013-06-17 09:59:00,47.8,45.6,27.97,ESE,107,1.0,2.0,92,0.00,,---,0.05,VWS V14.01,2013-06-17 14:59:00,
2013-06-17 10:04:00,47.8,45.0,27.97,East,96,2.0,3.0,90,0.00,,---,0.05,VWS V14.01,2013-06-17 15:04:00,
2013-06-17 10:10:00,47.8,44.7,27.97,SE,133,1.0,2.0,89,0.00,,---,0.05,VWS V14.01,2013-06-17 15:10:00,
2013-06-17 10:15:00,48.1,45.0,27.97,ESE,112,0.0,3.0,89,0.00,,---,0.05,VWS V14.01,2013-06-17 15:15:00,
2013-06-17 10:20:00,48.6,46.1,27.98,ESE,104,2.0,4.0,91,0.00,,---,0.05,VWS V14.01,2013-06-17 15:20:00,
2013-06-17 10:25:00,48.8,45.4,27.98,SSE,154,1.0,4.0,88,0.00,,---,0.05,VWS V14.01,2013-06-17 15:25:00,
2013-06-17 10:30:00,49.0,45.6,27.98,East,101,3.0,4.0,88,0.00,,---,0.05,VWS V14.01,2013-06-17 15:30:00,
2013-06-17 10:35:00,49.0,44.7,27.98,SE,145,6.0,6.0,85,0.00,,---,0.05,VWS V14.01,2013-06-17 15:35:00,
2013-06-17 10:40:00,49.2,45.8,27.98,East,79,0.0,5.0,88,0.00,,---,0.05,VWS V14.01,2013-06-17 15:40:00,
2013-06-17 10:46:00,49.9,46.2,27.99,ENE,67,0.0,0.0,87,0.00,,---,0.05,VWS V14.01,2013-06-17 15:46:00,
2013-06-17 10:51:00,50.0,45.0,27.99,ENE,71,0.0,4.0,83,0.00,,---,0.05,VWS V14.01,2013-06-17 15:51:00,
2013-06-17 10:56:00,50.0,45.4,27.99,ESE,119,2.0,4.0,84,0.00,,---,0.05,VWS V14.01,2013-06-17 15:56:00,
2013-06-17 11:01:00,50.2,45.6,27.99,ESE,118,0.0,2.0,84,0.00,,---,0.05,VWS V14.01,2013-06-17 16:01:00,
2013-06-17 11:06:00,50.5,46.2,27.99,SE,146,0.0,2.0,85,0.00,,---,0.05,VWS V14.01,2013-06-17 16:06:00,
2013-06-17 11:11:00,50.9,45.0,27.99,East,82,2.0,2.0,80,0.00,,---,0.05,VWS V14.01,2013-06-17 16:11:00,
2013-06-17 11:17:00,51.4,47.0,28.00,East,92,3.0,3.0,85,0.00,,---,0.05,VWS V14.01,2013-06-17 16:17:00,
2013-06-17 11:22:00,51.8,45.2,28.00,ESE,105,3.0,5.0,78,0.00,,---,0.05,VWS V14.01,2013-06-17 16:22:00,
2013-06-17 11:27:00,52.0,45.7,28.00,ESE,110,2.0,3.0,79,0.00,,---,0.05,VWS V14.01,2013-06-17 16:27:00,
2013-06-17 11:32:00,52.9,45.2,28.00,ESE,117,4.0,4.0,75,0.00,,---,0.05,VWS V14.01,2013-06-17 16:32:00,
2013-06-17 11:38:00,53.8,46.1,28.00,East,89,0.0,0.0,75,0.00,,---,0.05,VWS V14.01,2013-06-17 16:38:00,
2013-06-17 11:43:00,54.6,46.1,28.00,East,85,2.0,3.0,73,0.00,,---,0.05,VWS V14.01,2013-06-17 16:43:00,
2013-06-17 11:48:00,54.9,45.3,28.00,ENE,77,3.0,3.0,70,0.00,,---,0.05,VWS V14.01,2013-06-17 16:48:00,
2013-06-17 11:53:00,54.5,44.2,28.00,ESE,120,0.0,1.0,68,0.00,,---,0.05,VWS V14.01,2013-06-17 16:53:00,
2013-06-17 11:58:00,54.9,44.9,28.00,NE,43,2.0,2.0,69,0.00,,---,0.05,VWS V14.01,2013-06-17 16:58:00,
2013-06-17 12:03:00,55.6,45.6,28.00,NNE,18,1.0,2.0,69,0.00,,---,0.05,VWS V14.01,2013-06-17 17:03:00,
2013-06-17 12:09:00,56.3,45.9,28.00,SE,143,2.0,4.0,68,0.00,,---,0.05,VWS V14.01,2013-06-17 17:09:00,
2013-06-17 12:14:00,56.6,45.8,28.00,ESE,117,0.0,1.0,67,0.00,,---,0.05,VWS V14.01,2013-06-17 17:14:00,
2013-06-17 12:19:00,56.5,44.9,28.01,ENE,76,2.0,3.0,65,0.00,,---,0.05,VWS V14.01,2013-06-17 17:19:00,
2013-06-17 12:24:00,57.0,46.2,28.01,East,86,0.0,3.0,67,0.00,,---,0.05,VWS V14.01,2013-06-17 17:24:00,
2013-06-17 12:29:00,57.7,46.8,28.01,East,94,0.0,1.0,67,0.00,,---,0.05,VWS V14.01,2013-06-17 17:29:00,
2013-06-17 12:34:00,59.0,48.1,28.01,ENE,74,1.0,2.0,67,0.00,,---,0.05,VWS V14.01,2013-06-17 17:34:00,
2013-06-17 12:39:00,59.6,46.6,28.01,NNE,20,1.0,4.0,62,0.00,,---,0.05,VWS V14.01,2013-06-17 17:39:00,
2013-06-17 12:45:00,60.0,47.0,28.01,ESE,118,2.0,4.0,62,0.00,,---,0.05,VWS V14.01,2013-06-17 17:45:00,
2013-06-17 12:50:00,59.5,46.9,28.01,SSE,160,3.0,4.0,63,0.00,,---,0.05,VWS V14.01,2013-06-17 17:50:00,
2013-06-17 12:55:00,58.8,45.4,28.01,East,89,0.0,2.0,61,0.00,,---,0.05,VWS V14.01,2013-06-17 17:55:00,
2013-06-17 13:00:00,59.5,46.9,28.01,East,89,0.0,0.0,63,0.00,,---,0.05,VWS V14.01,2013-06-17 18:00:00,
2013-06-17 13:05:00,59.8,46.8,28.01,East,96,1.0,5.0,62,0.00,,---,0.05,VWS V14.01,2013-06-17 18:05:00,
2013-06-17 13:11:00,59.6,47.0,28.01,East,96,0.0,1.0,63,0.00,,---,0.05,VWS V14.01,2013-06-17 18:11:00,
2013-06-17 13:16:00,60.5,47.9,28.01,ESE,115,0.0,2.0,63,0.00,,---,0.05,VWS V14.01,2013-06-17 18:16:00,
2013-06-17 13:21:00,61.4,47.0,28.01,ESE,119,0.0,0.0,59,0.00,,---,0.05,VWS V14.01,2013-06-17 18:21:00,
2013-06-17 13:26:00,61.2,45.4,28.01,North,350,1.0,3.0,56,0.00,,---,0.05,VWS V14.01,2013-06-17 18:26:00,
2013-06-17 13:32:00,61.7,44.9,28.01,ESE,107,1.0,3.0,54,0.00,,---,0.05,VWS V14.01,2013-06-17 18:32:00,
2013-06-17 13:37:00,61.5,46.1,28.01,North,355,0.0,2.0,57,0.00,,---,0.05,VWS V14.01,2013-06-17 18:37:00,
2013-06-17 13:42:00,61.9,45.6,28.01,North,360,1.0,1.0,55,0.00,,---,0.05,VWS V14.01,2013-06-17 18:42:00,
2013-06-17 13:47:00,61.8,46.4,28.01,NE,36,2.0,4.0,57,0.00,,---,0.05,VWS V14.01,2013-06-17 18:47:00,
2013-06-17 13:52:00,60.6,43.9,28.01,SE,142,0.0,3.0,54,0.00,,---,0.05,VWS V14.01,2013-06-17 18:52:00,
2013-06-17 13:57:00,60.9,45.1,28.01,NNE,15,2.0,2.0,56,0.00,,---,0.05,VWS V14.01,2013-06-17 18:57:00,
2013-06-17 14:03:00,60.4,44.7,28.01,ESE,120,0.0,0.0,56,0.00,,---,0.05,VWS V14.01,2013-06-17 19:03:00,
2013-06-17 14:08:00,61.6,45.3,28.01,SSE,150,1.0,3.0,55,0.00,,---,0.05,VWS V14.01,2013-06-17 19:08:00,
2013-06-17 14:13:00,62.1,44.8,28.01,SSE,147,2.0,2.0,53,0.00,,---,0.05,VWS V14.01,2013-06-17 19:13:00,
2013-06-17 14:18:00,62.3,45.5,28.01,ESE,109,7.0,8.0,54,0.00,,---,0.05,VWS V14.01,2013-06-17 19:18:00,
2013-06-17 14:23:00,61.9,44.1,28.01,NNE,26,1.0,3.0,52,0.00,,---,0.05,VWS V14.01,2013-06-17 19:23:00,
2013-06-17 14:29:00,61.8,43.0,28.01,NNE,21,5.0,6.0,50,0.00,,---,0.05,VWS V14.01,2013-06-17 19:29:00,
2013-06-17 14:34:00,61.3,42.0,28.01,NNE,21,0.0,6.0,49,0.00,,---,0.05,VWS V14.01,2013-06-17 19:34:00,
2013-06-17 14:39:00,61.4,43.1,28.01,ENE,72,0.0,4.0,51,0.00,,---,0.05,VWS V14.01,2013-06-17 19:39:00,
2013-06-17 14:44:00,62.3,44.5,28.01,NE,40,2.0,2.0,52,0.00,,---,0.05,VWS V14.01,2013-06-17 19:44:00,
2013-06-17 14:50:00,62.2,42.8,28.01,NNE,12,0.0,3.0,49,0.00,,---,0.05,VWS V14.01,2013-06-17 19:50:00,
2013-06-17 14:55:00,62.6,42.7,28.01,North,9,2.0,5.0,48,0.00,,---,0.05,VWS V14.01,2013-06-17 19:55:00,
2013-06-17 15:00:00,62.7,43.8,28.01,NNE,13,6.0,6.0,50,0.00,,---,0.05,VWS V14.01,2013-06-17 20:00:00,
2013-06-17 15:05:00,61.9,42.5,28.01,NNE,19,0.0,0.0,49,0.00,,---,0.05,VWS V14.01,2013-06-17 20:05:00,
2013-06-17 15:11:00,63.1,44.7,28.01,ENE,78,1.0,3.0,51,0.00,,---,0.05,VWS V14.01,2013-06-17 20:11:00,
2013-06-17 15:16:00,63.3,44.4,28.01,ENE,63,3.0,6.0,50,0.00,,---,0.05,VWS V14.01,2013-06-17 20:16:00,
2013-06-17 15:21:00,63.4,43.4,28.01,North,9,2.0,6.0,48,0.00,,---,0.05,VWS V14.01,2013-06-17 20:21:00,
2013-06-17 15:26:00,62.7,43.3,28.01,NW,311,2.0,5.0,49,0.00,,---,0.05,VWS V14.01,2013-06-17 20:26:00,
2013-06-17 15:31:00,63.0,43.6,28.01,NNW,347,4.0,4.0,49,0.00,,---,0.05,VWS V14.01,2013-06-17 20:31:00,
2013-06-17 15:36:00,63.1,43.1,28.01,WNW,295,0.0,4.0,48,0.00,,---,0.05,VWS V14.01,2013-06-17 20:36:00,
2013-06-17 15:41:00,63.4,43.9,28.01,WNW,295,0.0,1.0,49,0.00,,---,0.05,VWS V14.01,2013-06-17 20:41:00,
2013-06-17 15:46:00,64.1,45.1,28.01,WNW,292,4.0,4.0,50,0.00,,---,0.05,VWS V14.01,2013-06-17 20:46:00,
2013-06-17 15:51:00,64.0,43.4,28.01,NE,42,0.0,0.0,47,0.00,,---,0.05,VWS V14.01,2013-06-17 20:51:00,
2013-06-17 15:57:00,65.0,45.4,28.01,NE,42,0.0,0.0,49,0.00,,---,0.05,VWS V14.01,2013-06-17 20:57:00,
2013-06-17 16:02:00,65.4,42.9,28.02,East,89,3.0,5.0,44,0.00,,---,0.05,VWS V14.01,2013-06-17 21:02:00,
2013-06-17 16:07:00,64.4,43.8,28.02,SE,130,0.0,0.0,47,0.00,,---,0.05,VWS V14.01,2013-06-17 21:07:00,
2013-06-17 16:12:00,65.1,43.8,28.02,SW,231,1.0,2.0,46,0.00,,---,0.05,VWS V14.01,2013-06-17 21:12:00,
2013-06-17 16:17:00,64.2,43.0,28.02,NE,36,1.0,2.0,46,0.00,,---,0.05,VWS V14.01,2013-06-17 21:17:00,
2013-06-17 16:22:00,64.5,43.3,28.02,NE,34,1.0,1.0,46,0.00,,---,0.05,VWS V14.01,2013-06-17 21:22:00,
2013-06-17 16:27:00,65.2,46.1,28.02,ESE,119,0.0,0.0,50,0.00,,---,0.05,VWS V14.01,2013-06-17 21:27:00,
2013-06-17 16:32:00,65.6,44.3,28.01,ESE,112,0.0,2.0,46,0.00,,---,0.05,VWS V14.01,2013-06-17 21:32:00,
2013-06-17 16:37:00,65.4,44.7,28.01,East,82,0.0,0.0,47,0.00,,---,0.05,VWS V14.01,2013-06-17 21:37:00,
2013-06-17 16:43:00,65.6,44.3,28.01,WNW,297,1.0,2.0,46,0.00,,---,0.05,VWS V14.01,2013-06-17 21:43:00,
2013-06-17 16:48:00,65.2,43.3,28.01,NW,316,1.0,3.0,45,0.00,,---,0.05,VWS V14.01,2013-06-17 21:48:00,
2013-06-17 16:53:00,65.1,43.8,28.01,NW,315,0.0,2.0,46,0.00,,---,0.05,VWS V14.01,2013-06-17 21:53:00,
2013-06-17 16:58:00,65.6,43.7,28.01,NW,312,0.0,0.0,45,0.00,,---,0.05,VWS V14.01,2013-06-17 21:58:00,
2013-06-17 17:04:00,66.0,44.1,28.01,NW,312,0.0,0.0,45,0.00,,---,0.05,VWS V14.01,2013-06-17 22:04:00,
2013-06-17 17:09:00,66.2,43.7,28.01,NW,319,0.0,1.0,44,0.00,,---,0.05,VWS V14.01,2013-06-17 22:09:00,
2013-06-17 17:14:00,66.6,43.4,28.01,NW,319,0.0,0.0,43,0.00,,---,0.05,VWS V14.01,2013-06-17 22:14:00,
2013-06-17 17:19:00,66.7,44.1,28.01,NW,321,1.0,1.0,44,0.00,,---,0.05,VWS V14.01,2013-06-17 22:19:00,
2013-06-17 17:24:00,66.6,44.0,28.01,NW,321,1.0,1.0,44,0.00,,---,0.05,VWS V14.01,2013-06-17 22:24:00,
2013-06-17 17:30:00,66.4,44.4,28.01,NW,321,1.0,2.0,45,0.00,,---,0.05,VWS V14.01,2013-06-17 22:30:00,
2013-06-17 17:35:00,65.8,42.7,28.02,NW,325,0.0,2.0,43,0.00,,---,0.05,VWS V14.01,2013-06-17 22:35:00,
2013-06-17 17:40:00,65.0,42.6,28.02,NW,325,0.0,0.0,44,0.00,,---,0.05,VWS V14.01,2013-06-17 22:40:00,
2013-06-17 17:45:00,65.8,43.3,28.02,NW,325,0.0,0.0,44,0.00,,---,0.05,VWS V14.01,2013-06-17 22:45:00,
2013-06-17 17:50:00,66.6,44.6,28.02,NW,325,0.0,0.0,45,0.00,,---,0.05,VWS V14.01,2013-06-17 22:50:00,
2013-06-17 17:55:00,67.2,45.2,28.02,NW,325,0.0,1.0,45,0.00,,---,0.05,VWS V14.01,2013-06-17 22:55:00,
2013-06-17 18:00:00,66.5,44.5,28.01,West,267,2.0,2.0,45,0.00,,---,0.05,VWS V14.01,2013-06-17 23:00:00,
2013-06-17 18:06:00,65.3,42.8,28.01,WNW,298,0.0,0.0,44,0.00,,---,0.05,VWS V14.01,2013-06-17 23:06:00,
2013-06-17 18:11:00,64.8,46.8,28.01,South,183,1.0,2.0,52,0.00,,---,0.05,VWS V14.01,2013-06-17 23:11:00,
2013-06-17 18:16:00,64.2,47.7,28.02,South,180,1.0,4.0,55,0.00,,---,0.05,VWS V14.01,2013-06-17 23:16:00,
2013-06-17 18:21:00,63.5,47.5,28.02,SSW,193,1.0,4.0,56,0.00,,---,0.05,VWS V14.01,2013-06-17 23:21:00,
2013-06-17 18:26:00,63.0,48.5,28.02,South,190,2.0,2.0,59,0.00,,---,0.05,VWS V14.01,2013-06-17 23:26:00,
2013-06-17 18:31:00,62.3,46.9,28.02,SSE,165,0.0,1.0,57,0.00,,---,0.05,VWS V14.01,2013-06-17 23:31:00,
2013-06-17 18:36:00,61.9,47.4,28.02,South,171,0.0,1.0,59,0.00,,---,0.05,VWS V14.01,2013-06-17 23:36:00,
2013-06-17 18:41:00,61.8,46.9,28.02,South,180,0.0,1.0,58,0.00,,---,0.05,VWS V14.01,2013-06-17 23:41:00,
2013-06-17 18:47:00,61.8,48.7,28.02,South,174,0.0,0.0,62,0.00,,---,0.05,VWS V14.01,2013-06-17 23:47:00,
2013-06-17 18:52:00,62.0,49.3,28.02,South,170,0.0,0.0,63,0.00,,---,0.05,VWS V14.01,2013-06-17 23:52:00,
2013-06-17 18:57:00,61.9,47.9,28.02,South,171,1.0,1.0,60,0.00,,---,0.05,VWS V14.01,2013-06-17 23:57:00,
2013-06-17 19:02:00,61.6,48.5,28.02,South,175,0.0,0.0,62,0.00,,---,0.05,VWS V14.01,2013-06-18 00:02:00,
2013-06-17 19:08:00,61.5,49.2,28.02,South,171,0.0,0.0,64,0.00,,---,0.05,VWS V14.01,2013-06-18 00:08:00,
2013-06-17 19:13:00,61.3,47.3,28.02,SSW,192,0.0,3.0,60,0.00,,---,0.05,VWS V14.01,2013-06-18 00:13:00,
2013-06-17 19:18:00,60.7,47.6,28.02,SSW,197,1.0,2.0,62,0.00,,---,0.05,VWS V14.01,2013-06-18 00:18:00,
2013-06-17 19:23:00,60.4,47.3,28.02,SW,217,0.0,0.0,62,0.00,,---,0.05,VWS V14.01,2013-06-18 00:23:00,
2013-06-17 19:28:00,60.6,48.8,28.02,SW,217,0.0,0.0,65,0.00,,---,0.05,VWS V14.01,2013-06-18 00:28:00,
2013-06-17 19:34:00,59.9,46.4,28.03,SSE,158,4.0,4.0,61,0.00,,---,0.05,VWS V14.01,2013-06-18 00:34:00,
2013-06-17 19:39:00,59.0,46.4,28.03,SE,141,0.0,2.0,63,0.00,,---,0.05,VWS V14.01,2013-06-18 00:39:00,
2013-06-17 19:44:00,58.3,47.4,28.03,South,169,0.0,1.0,67,0.00,,---,0.05,VWS V14.01,2013-06-18 00:44:00,
2013-06-17 19:49:00,57.8,46.5,28.03,SSE,164,0.0,3.0,66,0.00,,---,0.05,VWS V14.01,2013-06-18 00:49:00,
2013-06-17 19:54:00,57.7,47.2,28.03,SSE,164,0.0,0.0,68,0.00,,---,0.05,VWS V14.01,2013-06-18 00:54:00,
2013-06-17 20:00:00,57.6,46.7,28.03,SSE,164,0.0,0.0,67,0.00,,---,0.05,VWS V14.01,2013-06-18 01:00:00,
2013-06-17 20:05:00,57.3,46.5,28.03,SSW,209,0.0,0.0,67,0.00,,---,0.05,VWS V14.01,2013-06-18 01:05:00,
2013-06-17 20:10:00,57.1,45.9,28.03,SSW,209,0.0,0.0,66,0.00,,---,0.05,VWS V14.01,2013-06-18 01:10:00,
2013-06-17 20:15:00,57.1,46.7,28.03,SSW,209,0.0,0.0,68,0.00,,---,0.05,VWS V14.01,2013-06-18 01:15:00,
2013-06-17 20:20:00,56.9,46.1,28.03,SSW,209,0.0,0.0,67,0.00,,---,0.05,VWS V14.01,2013-06-18 01:20:00,
2013-06-17 20:25:00,56.7,46.3,28.03,SSW,209,0.0,0.0,68,0.00,,---,0.05,VWS V14.01,2013-06-18 01:25:00,
2013-06-17 20:30:00,56.5,46.5,28.03,SSW,209,0.0,0.0,69,0.00,,---,0.05,VWS V14.01,2013-06-18 01:30:00,
2013-06-17 20:36:00,56.0,46.0,28.03,SSW,209,0.0,0.0,69,0.00,,---,0.05,VWS V14.01,2013-06-18 01:36:00,
2013-06-17 20:41:00,55.4,45.0,28.03,SSW,209,0.0,1.0,68,0.00,,---,0.05,VWS V14.01,2013-06-18 01:41:00,
2013-06-17 20:46:00,54.7,44.7,28.03,SSW,209,0.0,0.0,69,0.00,,---,0.05,VWS V14.01,2013-06-18 01:46:00,
2013-06-17 20:51:00,53.9,44.3,28.03,SSW,209,0.0,1.0,70,0.00,,---,0.05,VWS V14.01,2013-06-18 01:51:00,
2013-06-17 20:56:00,53.1,44.3,28.03,ESE,123,1.0,2.0,72,0.00,,---,0.05,VWS V14.01,2013-06-18 01:56:00,
2013-06-17 21:01:00,52.6,42.7,28.04,ESE,111,7.0,7.0,69,0.00,,---,0.05,VWS V14.01,2013-06-18 02:01:00,
2013-06-17 21:06:00,52.1,41.5,28.04,SSE,155,1.0,3.0,67,0.00,,---,0.05,VWS V14.01,2013-06-18 02:06:00,
2013-06-17 21:11:00,51.5,42.0,28.04,SSE,155,1.0,3.0,70,0.00,,---,0.05,VWS V14.01,2013-06-18 02:11:00,
2013-06-17 21:17:00,50.9,40.0,28.04,SSE,160,0.0,1.0,66,0.00,,---,0.05,VWS V14.01,2013-06-18 02:17:00,
2013-06-17 21:22:00,50.5,40.7,28.04,SSE,162,0.0,0.0,69,0.00,,---,0.05,VWS V14.01,2013-06-18 02:22:00,
2013-06-17 21:27:00,50.0,40.2,28.04,SSE,162,0.0,0.0,69,0.00,,---,0.05,VWS V14.01,2013-06-18 02:27:00,
2013-06-17 21:32:00,49.6,40.6,28.05,SSE,162,0.0,0.0,71,0.00,,---,0.05,VWS V14.01,2013-06-18 02:32:00,
2013-06-17 21:37:00,49.2,40.2,28.05,SSE,162,0.0,0.0,71,0.00,,---,0.05,VWS V14.01,2013-06-18 02:37:00,
2013-06-17 21:42:00,48.6,39.6,28.05,SSE,162,0.0,0.0,71,0.00,,---,0.05,VWS V14.01,2013-06-18 02:42:00,
2013-06-17 21:47:00,48.2,39.2,28.05,SSE,162,0.0,0.0,71,0.00,,---,0.05,VWS V14.01,2013-06-18 02:47:00,
2013-06-17 21:52:00,47.9,39.0,28.05,SSE,162,0.0,0.0,71,0.00,,---,0.05,VWS V14.01,2013-06-18 02:52:00,
2013-06-17 21:58:00,47.8,38.9,28.05,SSE,162,0.0,0.0,71,0.00,,---,0.05,VWS V14.01,2013-06-18 02:58:00,
2013-06-17 22:03:00,47.6,39.0,28.05,SSE,162,0.0,1.0,72,0.00,,---,0.05,VWS V14.01,2013-06-18 03:03:00,
2013-06-17 22:08:00,47.6,38.7,28.05,SSE,162,0.0,0.0,71,0.00,,---,0.05,VWS V14.01,2013-06-18 03:08:00,
2013-06-17 22:13:00,47.3,38.7,28.05,SSE,162,0.0,1.0,72,0.00,,---,0.05,VWS V14.01,2013-06-18 03:13:00,
2013-06-17 22:18:00,46.9,38.7,28.06,SSE,162,0.0,0.0,73,0.00,,---,0.05,VWS V14.01,2013-06-18 03:18:00,
2013-06-17 22:24:00,46.4,38.2,28.06,SSE,162,0.0,0.0,73,0.00,,---,0.05,VWS V14.01,2013-06-18 03:24:00,
2013-06-17 22:29:00,45.9,38.1,28.06,SSE,162,0.0,0.0,74,0.00,,---,0.05,VWS V14.01,2013-06-18 03:29:00,
2013-06-17 22:34:00,45.4,38.0,28.06,SSE,162,0.0,0.0,75,0.00,,---,0.05,VWS V14.01,2013-06-18 03:34:00,
2013-06-17 22:39:00,45.1,37.3,28.06,SSE,162,0.0,0.0,74,0.00,,---,0.05,VWS V14.01,2013-06-18 03:39:00,
2013-06-17 22:44:00,45.0,37.9,28.06,SSE,162,0.0,0.0,76,0.00,,---,0.05,VWS V14.01,2013-06-18 03:44:00,
2013-06-17 22:49:00,45.0,38.2,28.06,SSE,162,0.0,0.0,77,0.00,,---,0.05,VWS V14.01,2013-06-18 03:49:00,
2013-06-17 22:55:00,45.0,37.6,28.06,SSE,162,0.0,0.0,75,0.00,,---,0.05,VWS V14.01,2013-06-18 03:55:00,
2013-06-17 23:00:00,45.2,37.8,28.06,SSE,162,0.0,0.0,75,0.00,,---,0.05,VWS V14.01,2013-06-18 04:00:00,
2013-06-17 23:01:00,45.2,37.4,28.06,SSE,162,0.0,0.0,74,0.00,,---,0.05,VWS V14.01,2013-06-18 04:01:00,
2013-06-17 23:02:00,45.2,37.4,28.06,SSE,162,0.0,0.0,74,0.00,,---,0.05,VWS V14.01,2013-06-18 04:02:00,
2013-06-17 23:03:00,45.2,36.7,28.06,SSE,162,0.0,0.0,72,0.00,,---,0.05,VWS V14.01,2013-06-18 04:03:00,
2013-06-17 23:08:00,45.4,36.9,28.06,SSE,162,0.0,0.0,72,0.00,,---,0.05,VWS V14.01,2013-06-18 04:08:00,
2013-06-17 23:13:00,45.5,37.0,28.06,SSE,162,0.0,0.0,72,0.00,,---,0.05,VWS V14.01,2013-06-18 04:13:00,
2013-06-17 23:18:00,45.4,37.3,28.06,SSE,162,0.0,0.0,73,0.00,,---,0.05,VWS V14.01,2013-06-18 04:18:00,
2013-06-17 23:24:00,45.2,37.4,28.06,SSE,162,0.0,0.0,74,0.00,,---,0.05,VWS V14.01,2013-06-18 04:24:00,
2013-06-17 23:29:00,45.0,37.2,28.06,SSE,162,0.0,0.0,74,0.00,,---,0.05,VWS V14.01,2013-06-18 04:29:00,
2013-06-17 23:34:00,44.9,36.8,28.06,SSE,162,0.0,0.0,73,0.00,,---,0.05,VWS V14.01,2013-06-18 04:34:00,
2013-06-17 23:39:00,44.8,36.7,28.06,SSE,162,0.0,0.0,73,0.00,,---,0.05,VWS V14.01,2013-06-18 04:39:00,
2013-06-17 23:44:00,44.5,36.4,28.06,SSE,162,0.0,0.0,73,0.00,,---,0.05,VWS V14.01,2013-06-18 04:44:00,
2013-06-17 23:50:00,44.1,36.0,28.06,SSE,162,0.0,0.0,73,0.00,,---,0.05,VWS V14.01,2013-06-18 04:50:00,
2013-06-17 23:55:00,43.8,35.7,28.06,SSE,162,0.0,0.0,73,0.00,,---,0.05,VWS V14.01,2013-06-18 04:55:00,